Location: Gwatt
(46.7204°N, 7.6223°E)
Time: 06:46:29
(UTC+00:00)

CZ-2C R/B - Pass Details

Date: 18 September 2020
Orbit: 704 x 907 km, 98.1° (Epoch: 23 October)

Event Time Altitude Azimuth Distance (km) Brightness Sun altitude
Rises 17:56:21 0° 154° (SSE) 3,243 5.9 -4.6°
Reaches altitude 10° 17:58:37 10° 151° (SSE) 2,349 5.2 -4.9°
Maximum altitude 18:03:44 62° 72° (ENE) 925 3.2 -5.8°
Drops below altitude 10° 18:09:12 10° 353° (N) 2,497 5.9 -6.7°
Sets 18:11:40 0° 350° (N) 3,465 6.7 -7.2°
